Back to catalog

STARLINK-11391

AliveCommunicationsVLEO
NORAD 62889·PAYLOAD·🇺🇸 United States

Launched Feb 4, 2025 from Cape Canaveral Space Force Station

Loading…

Next Passes (next 24 hours)

TLE

FreshSource: CelesTrak SupGP

Epoch: Sep 14, 2026, 14:49 UTC

1 62889C 25024L   26257.61784722  .00070227  00000+0  54574-3 0  2577
2 62889  43.0000 122.4807 0001616 249.8566  46.4217 15.70790887    17

Track STARLINK-11391 in real time with AllMySat

Download on the App Store